CST404X SBGR-SAEZ

Flight info

Callsign CST404X
Flight time N/A
Altitude 32000
Route UBSOD UZ38 UMDEX DCT CXS DCT UMRUD UN741 PAPIX PAPIX7A
Aircraft B77L/H-SDE1E2E3FGHIJ2J3J4J5M1RWXY/LB1D1

Departure

Time N/A
Airport São Paulo/Guarulhos–Governor André Franco Montoro International Airport (SBGR)

Arrival

Time 2026-05-05 20:00
Airport Ezeiza International Airport - Ministro Pistarini (SAEZ)
Time Latitude Longitude Altitude Speed Heading
2026-05-05 19:36 -33.66555 -57.12068 33974 ft 444 kts 230°
2026-05-05 19:37 -33.68777 -57.14643 33997 ft 444 kts 230°
2026-05-05 19:37 -33.73214 -57.19789 33966 ft 446 kts 230°
2026-05-05 19:38 -33.77676 -57.24972 33982 ft 446 kts 230°
2026-05-05 19:38 -33.82140 -57.30167 33966 ft 446 kts 230°
2026-05-05 19:39 -33.86601 -57.35365 33982 ft 446 kts 230°
2026-05-05 19:39 -33.91061 -57.40567 33969 ft 447 kts 230°
2026-05-05 19:40 -33.95502 -57.45749 33973 ft 447 kts 230°
2026-05-05 19:40 -33.99979 -57.50983 33103 ft 453 kts 230°
2026-05-05 19:40 -34.02235 -57.53625 32342 ft 451 kts 230°
2026-05-05 19:41 -34.04479 -57.56252 31670 ft 447 kts 230°
2026-05-05 19:41 -34.06702 -57.58853 31055 ft 443 kts 230°
2026-05-05 19:41 -34.08902 -57.61431 30480 ft 439 kts 230°
2026-05-05 19:41 -34.11084 -57.63992 29883 ft 435 kts 230°
2026-05-05 19:42 -34.12517 -57.65676 29455 ft 433 kts 230°
2026-05-05 19:42 -34.14668 -57.68205 28827 ft 430 kts 230°
2026-05-05 19:42 -34.16801 -57.70715 28244 ft 426 kts 230°
2026-05-05 19:42 -34.18911 -57.73199 27687 ft 422 kts 230°
2026-05-05 19:43 -34.21001 -57.75663 27125 ft 418 kts 230°
2026-05-05 19:43 -34.23079 -57.78114 26570 ft 415 kts 230°
2026-05-05 19:43 -34.25135 -57.80540 26034 ft 412 kts 230°
2026-05-05 19:43 -34.27105 -57.83011 25499 ft 404 kts 235°
2026-05-05 19:44 -34.28709 -57.85712 25003 ft 397 kts 241°
2026-05-05 19:44 -34.30151 -57.88552 24499 ft 393 kts 243°
2026-05-05 19:44 -34.31519 -57.91402 23991 ft 392 kts 244°
2026-05-05 19:44 -34.32867 -57.94268 23476 ft 391 kts 244°
2026-05-05 19:45 -34.34198 -57.97138 22865 ft 391 kts 244°
2026-05-05 19:45 -34.35523 -58.00007 22271 ft 391 kts 244°
2026-05-05 19:45 -34.36850 -58.02888 21640 ft 391 kts 244°
2026-05-05 19:45 -34.38174 -58.05761 21023 ft 391 kts 244°
2026-05-05 19:46 -34.39496 -58.08627 20435 ft 390 kts 244°
2026-05-05 19:46 -34.40825 -58.11501 19832 ft 390 kts 244°
2026-05-05 19:46 -34.42133 -58.14325 19259 ft 389 kts 245°
2026-05-05 19:46 -34.43460 -58.17182 18748 ft 388 kts 244°
2026-05-05 19:47 -34.44784 -58.20024 18223 ft 387 kts 245°
2026-05-05 19:47 -34.46106 -58.22857 17604 ft 386 kts 244°
2026-05-05 19:47 -34.47420 -58.25683 17019 ft 384 kts 244°
2026-05-05 19:47 -34.48717 -58.28494 16442 ft 381 kts 244°
2026-05-05 19:48 -34.49998 -58.31300 15874 ft 379 kts 244°
2026-05-05 19:48 -34.51258 -58.34092 15342 ft 376 kts 244°
2026-05-05 19:48 -34.52497 -58.36876 14815 ft 373 kts 244°
2026-05-05 19:48 -34.53715 -58.39644 14302 ft 371 kts 244°
2026-05-05 19:49 -34.54911 -58.42400 13785 ft 368 kts 244°
2026-05-05 19:49 -34.56089 -58.45144 13228 ft 365 kts 244°
2026-05-05 19:49 -34.57252 -58.47881 12692 ft 363 kts 244°
2026-05-05 19:49 -34.58381 -58.50572 12130 ft 361 kts 245°
2026-05-05 19:50 -34.59494 -58.53254 11505 ft 349 kts 245°
2026-05-05 19:50 -34.60564 -58.55854 10913 ft 345 kts 245°
2026-05-05 19:50 -34.61577 -58.58492 10331 ft 345 kts 250°
2026-05-05 19:50 -34.62334 -58.61251 9746 ft 345 kts 253°
2026-05-05 19:51 -34.62996 -58.64042 9161 ft 340 kts 255°
2026-05-05 19:51 -34.63609 -58.66742 8538 ft 325 kts 256°
2026-05-05 19:51 -34.64198 -58.69354 7929 ft 314 kts 256°
2026-05-05 19:51 -34.64769 -58.71828 7353 ft 295 kts 257°
2026-05-05 19:52 -34.65325 -58.74143 6867 ft 277 kts 257°
2026-05-05 19:52 -34.65872 -58.76310 6427 ft 260 kts 256°
2026-05-05 19:52 -34.66411 -58.78381 6075 ft 256 kts 256°
2026-05-05 19:52 -34.66948 -58.80434 5693 ft 255 kts 256°
2026-05-05 19:53 -34.67470 -58.82486 5318 ft 255 kts 256°
2026-05-05 19:53 -34.67979 -58.84546 5067 ft 252 kts 256°
2026-05-05 19:53 -34.68472 -58.86578 5023 ft 252 kts 256°
2026-05-05 19:53 -34.69033 -58.88605 4961 ft 254 kts 243°
2026-05-05 19:54 -34.70305 -58.90073 4971 ft 260 kts 207°
2026-05-05 19:54 -34.72092 -58.90425 4973 ft 265 kts 181°
2026-05-05 19:54 -34.73956 -58.90193 4965 ft 273 kts 169°
2026-05-05 19:54 -34.75676 -58.89192 4959 ft 278 kts 140°
2026-05-05 19:55 -34.76814 -58.87306 4960 ft 281 kts 110°
2026-05-05 19:55 -34.77188 -58.84962 4810 ft 286 kts 93°
2026-05-05 19:55 -34.77337 -58.82554 4423 ft 290 kts 94°
2026-05-05 19:55 -34.77532 -58.80124 4047 ft 287 kts 96°
2026-05-05 19:56 -34.77857 -58.77745 3677 ft 284 kts 101°
2026-05-05 19:56 -34.78280 -58.75416 3318 ft 280 kts 102°
2026-05-05 19:56 -34.78701 -58.73139 2921 ft 269 kts 102°
2026-05-05 19:56 -34.79092 -58.70973 2593 ft 255 kts 102°
2026-05-05 19:57 -34.79458 -58.68932 2306 ft 238 kts 102°
2026-05-05 19:57 -34.79802 -58.67019 1982 ft 224 kts 102°
2026-05-05 19:57 -34.80119 -58.65262 1705 ft 205 kts 101°
2026-05-05 19:57 -34.80406 -58.63664 1452 ft 187 kts 101°
2026-05-05 19:58 -34.80675 -58.62172 1201 ft 172 kts 101°
2026-05-05 19:58 -34.80913 -58.60846 986 ft 150 kts 101°
2026-05-05 19:58 -34.81135 -58.59612 810 ft 150 kts 101°
2026-05-05 19:58 -34.81365 -58.58358 603 ft 151 kts 102°
2026-05-05 19:59 -34.81596 -58.57111 408 ft 149 kts 99°
2026-05-05 19:59 -34.81808 -58.55888 219 ft 148 kts 100°
2026-05-05 19:59 -34.82025 -58.54671 91 ft 141 kts 100°
2026-05-05 19:59 -34.82212 -58.53623 86 ft 109 kts 102°
2026-05-05 20:00 -34.82316 -58.53029 87 ft 41 kts 102°
2026-05-05 20:00 -34.82381 -58.52657 88 ft 45 kts 102°
2026-05-05 20:00 -34.82446 -58.52307 86 ft 41 kts 103°
2026-05-05 20:00 -34.82505 -58.51985 86 ft 32 kts 101°
2026-05-05 20:01 -34.82447 -58.51834 87 ft 19 kts 24°
2026-05-05 20:01 -34.82318 -58.51799 84 ft 19 kts
2026-05-05 20:01 -34.82252 -58.51889 83 ft 15 kts 285°
2026-05-05 20:01 -34.82218 -58.52057 81 ft 29 kts 283°
2026-05-05 20:02 -34.82170 -58.52299 81 ft 29 kts 284°
2026-05-05 20:02 -34.82124 -58.52524 85 ft 27 kts 284°
2026-05-05 20:02 -34.82079 -58.52748 86 ft 27 kts 281°
2026-05-05 20:02 -34.82026 -58.52965 86 ft 27 kts 316°
2026-05-05 20:03 -34.81851 -58.53037 90 ft 27 kts 344°
2026-05-05 20:03 -34.81670 -58.53103 86 ft 27 kts 344°
2026-05-05 20:03 -34.81487 -58.53165 89 ft 27 kts 343°
2026-05-05 20:03 -34.81307 -58.53230 90 ft 27 kts 344°
2026-05-05 20:04 -34.81125 -58.53294 92 ft 27 kts 343°
2026-05-05 20:04 -34.80944 -58.53357 91 ft 25 kts 344°
2026-05-05 20:04 -34.80880 -58.53490 83 ft 21 kts 256°
2026-05-05 20:04 -34.80883 -58.53613 83 ft 12 kts 284°
2026-05-05 20:05 -34.80877 -58.53703 80 ft 7 kts 255°
2026-05-05 20:05 -34.80885 -58.53738 82 ft 4 kts 254°
2026-05-05 20:05 -34.80887 -58.53744 84 ft 0 kts 254°